Weather History for Ponca City, OK

Change the Weather History Date:

Sunday, October 7, 2012

  Actual Average Record
Temperature  
Mean Temperature 42 °F -  
Max Temperature 57 °F 78 °F 95 °F (1963)
Min Temperature 30 °F 53 °F 30 °F (2012)
Degree Days  
Heating Degree Days 22    
Moisture  
Dew Point 28 °F    
Average Humidity 56    
Maximum Humidity 88    
Minimum Humidity 27    
Precipitation  
Precipitation 0.00 in - - ()
Sea Level Pressure  
Sea Level Pressure 30.29 in    
Wind  
Wind Speed 4 mph (NW)    
Max Wind Speed 10 mph    
Max Gust Speed -    
Visibility 10 miles    
Events      
Averages and records for this station are not official NWS values.
T = Trace of Precipitation, MM = Missing Value Source: NWS Daily Summary

Daily Weather History Graph

Daily Weather History Graph

Search for Another Location

Airport:

Trip Planner

Search our weather history database for the weather conditions in past years. The results will help you decide how hot, cold, wet, or windy it might be!

Date:

Astronomy

Oct. 07, 2012 Rise Set
Actual Time 7:29 AM CDT 7:02 PM CDT
Civil Twilight 7:03 AM CDT 7:28 PM CDT
Nautical Twilight 6:33 AM CDT 7:58 PM CDT
Astronomical Twilight 6:03 AM CDT 8:28 PM CDT
Moon No Moon Rise 2:01 PM CDT (10/7)
Length of Visible Light 12h 24m
Length of Day
11h 33m
Waning Gibbous, 56% of the Moon is Illuminated
Oct 7
Waning Gibbous
Oct 8
Last Quarter
Oct 15
New
Oct 21
First Quarter
Oct 29
Full

Hourly Weather History & Observations

Time (CDT) Temp. Windchill Dew Point Humidity Pressure Visibility Wind Dir Wind Speed Gust Speed Precip Events Conditions
12:53 AM 44.1 °F 40.8 °F 33.1 °F 65% 30.35 in 10.0 mi NNW 5.8 mph - N/A   Partly Cloudy
1:53 AM 43.0 °F 40.3 °F 33.1 °F 68% 30.36 in 10.0 mi NNW 4.6 mph - N/A   Overcast
2:53 AM 43.0 °F 40.3 °F 33.1 °F 68% 30.36 in 10.0 mi North 4.6 mph - N/A   Overcast
3:53 AM 39.9 °F 37.8 °F 32.0 °F 73% 30.35 in 10.0 mi NNW 3.5 mph - N/A   Scattered Clouds
4:53 AM 35.1 °F 32.2 °F 30.0 °F 82% 30.35 in 10.0 mi North 3.5 mph - N/A   Clear
5:53 AM 34.0 °F 31.0 °F 30.0 °F 85% 30.35 in 10.0 mi North 3.5 mph - N/A   Clear
6:53 AM 32.0 °F 28.7 °F 28.9 °F 88% 30.36 in 10.0 mi North 3.5 mph - N/A   Clear
7:53 AM 30.0 °F 26.5 °F 27.0 °F 88% 30.36 in 10.0 mi North 3.5 mph - N/A   Clear
8:53 AM 37.9 °F 33.5 °F 32.0 °F 79% 30.36 in 10.0 mi North 5.8 mph - N/A   Clear
9:53 AM 46.0 °F 43.9 °F 30.9 °F 56% 30.35 in 10.0 mi NNE 4.6 mph - N/A   Clear
10:53 AM 50.0 °F - 27.0 °F 41% 30.35 in 10.0 mi Variable 6.9 mph - N/A   Clear
11:53 AM 52.0 °F - 23.0 °F 32% 30.34 in 10.0 mi Variable 3.5 mph - N/A   Clear
12:53 PM 52.0 °F - 21.9 °F 31% 30.32 in 10.0 mi Calm Calm - N/A   Clear
1:53 PM 53.1 °F - 21.9 °F 30% 30.28 in 10.0 mi Variable 4.6 mph - N/A   Clear
2:53 PM 55.0 °F - 21.9 °F 28% 30.25 in 10.0 mi West 4.6 mph - N/A   Scattered Clouds
3:53 PM 55.9 °F - 21.9 °F 27% 30.23 in 10.0 mi Calm Calm - N/A   Partly Cloudy
4:53 PM 55.9 °F - 23.0 °F 28% 30.21 in 10.0 mi South 6.9 mph - N/A   Partly Cloudy
5:53 PM 54.0 °F - 23.0 °F 30% 30.20 in 10.0 mi SSW 5.8 mph - N/A   Clear
6:53 PM 51.1 °F - 25.0 °F 36% 30.20 in 10.0 mi SW 6.9 mph - N/A   Clear
7:53 PM 48.9 °F - 25.0 °F 39% 30.22 in 10.0 mi SSW 5.8 mph - N/A   Clear
8:53 PM 46.0 °F 41.0 °F 28.9 °F 51% 30.23 in 10.0 mi SSW 10.4 mph - N/A   Clear
9:53 PM 43.0 °F 40.3 °F 30.9 °F 62% 30.23 in 10.0 mi SSW 4.6 mph - N/A   Clear
10:53 PM 41.0 °F - 32.0 °F 70% 30.23 in 10.0 mi Calm Calm - N/A   Clear
11:53 PM 39.0 °F - 32.0 °F 76% 30.22 in 10.0 mi Calm Calm - N/A   Clear